Regional Weather Roundup
Issued by NWS

Home | Current Version | Previous Version | Text Only | Print | Product List | Glossary Off
Versions: 1 2 3 4 5 6 7 8 9 10 11 12 13 14 15 16 17 18 19 20 21 22 23 24 25 26 27 28 29 30 31 32 33 34 35 36 37 38 39 40 41 42 43 44 45 46 47 48 49 50

000
ASUS43 KLMK 212110
RWRKY
KENTUCKY REGIONAL WEATHER ROUNDUP
NATIONAL WEATHER SERVICE LOUISVILLE KY
500 PM EDT THU MAY 21 2015

NOTE "FAIR" INDICATES FEW OR NO CLOUDS BELOW 12,000 FEET
WITH NO SIGNIFICANT WEATHER AND/OR OBSTRUCTIONS TO VISIBILITY.

KYZ001>023-026-027-061>063-070>075-212200-
WESTERN AND SOUTH CENTRAL KENTUCKY

CITY           SKY/WX    TMP DP  RH WIND       PRES   REMARKS
PADUCAH        CLOUDY    61  43  51 NW14      30.18S
HENDERSON      CLOUDY    59  45  58 NW8       30.17S
OWENSBORO      CLOUDY    58  45  62 N15       30.16F
HOPKINSVILLE   CLOUDY    56  46  67 NW8       30.16S
BOWLING GREEN  MOSUNNY   59  46  62 NW8G16    30.14F
GLASGOW        CLOUDY    55  47  74 NW7       30.13S
$$

KYZ024-025-028>034-038-045-046-053-212200-
NORTH CENTRAL KENTUCKY

CITY           SKY/WX    TMP DP  RH WIND       PRES   REMARKS
LOUISVILLE/SDF CLOUDY    58  43  57 NW15G22   30.12S
LOUISVILLE/LOU CLOUDY    58  42  55 NW10      30.12F
FORT KNOX      CLOUDY    56  46  67 NW8       30.11F
$$

KYZ035>037-039>044-047>052-055>060-089>105-212200-
NORTHEAST KENTUCKY

CITY           SKY/WX    TMP DP  RH WIND       PRES   REMARKS
LEXINGTON      CLOUDY    55  47  74 NW9       30.09S
COVINGTON      CLOUDY    57  40  52 NW14      30.10R
FRANKFORT      CLOUDY    56  43  61 N8        30.09S
$$

KYZ054-064>069-076>088-106>120-212200-
SOUTHEAST KENTUCKY

CITY           SKY/WX    TMP DP  RH WIND       PRES   REMARKS
JACKSON        LGT RAIN  52  50  93 W6        30.05S FOG
LONDON         CLOUDY    56  47  71 NW8       30.08R
SOMERSET       DRIZZLE   52  50  93 NW9       30.12R
MIDDLESBORO    CLOUDY    58  50  74 NW7       30.07R
MONTICELLO     MOCLDY    56  50  80 NW13      30.13S
$$



USA.gov is the U.S. government's official web portal to all federal, state and local government web resources and services.